Regional Weather Roundup
Issued by NWS

Home | Current Version | Previous Version | Text Only | Print | Product List | Glossary Off
Versions: 1 2 3 4 5 6 7 8 9 10 11 12 13 14 15 16 17 18 19 20 21 22 23 24 25 26 27 28 29 30 31 32 33 34 35 36 37 38 39 40 41 42 43 44 45 46 47 48 49 50

000
ASUS43 KIND 121809
RWRIN

WEATHER ROUNDUP FOR INDIANA
NATIONAL WEATHER SERVICE INDIANAPOLIS IN
200 PM EDT SAT JUL 12 2014

NOTE: "FAIR" INDICATES FEW OR NO CLOUDS BELOW 12,000 FEET WITH NO
SIGNIFICANT WEATHER AND/OR OBSTRUCTIONS TO VISIBILITY.

* - STATION DOES NOT REPORT WEATHER SUCH AS PRECIPITATION OR FOG.

+ - STATION NOT QUALITY CONTROLLED BY THE NATIONAL WEATHER SERVICE.
    USE DATA WITH CAUTION...ESPECIALLY DEWPOINT AND RELATIVE
    HUMIDITY OBSERVATIONS.

INZ001>003-010>013-019-020-121900-
NORTHWEST INDIANA

CITY           SKY/WX    TMP DP  RH WIND       PRES   REMARKS
GARY /AIRPORT/ CLOUDY    73  70  88 S9        30.04F
KNOX *+        CLOUDY    70  68  91 SW3       30.07F
LA PORTE +     LGT RAIN  70  70 100 SW10      30.07F
6HR MIN TEMP:  68; 6HR MAX TEMP:  73; 6HR PCP:  0.16;

MICHIGAN CITY+ LGT RAIN  72  70  94 S14       30.03F
MONTICELLO +   RAIN      70  69  97 S13       30.07F
RENSSELAER +   DRIZZLE   70  70 100 S12       30.06F
VALPARAISO     LGT RAIN  71  69  93 S7        30.06F
6HR MIN TEMP:  69; 6HR MAX TEMP:  72; 6HR PCP:  0.32;


$$

LMZ046-743>745-121900-
SOUTHERN LAKE MICHIGAN

STATION/POSITION TIME  TEMP WIND        PRES
                       AIR  DIR/SP/G
                 (UTC) (F)  (DEG/KT/KT) (MB)
BURNS HARBOR     1700   71  180/  7/ 16 1017.9F
MICHIGAN CITY    1800   71  170/ 14/ 18   N/A

$$

INZ004-005-014>016-021>024-121900-
NORTH CENTRAL INDIANA

CITY           SKY/WX    TMP DP  RH WIND       PRES   REMARKS
ELKHART        LGT RAIN  73  68  83 S10       30.08F
GOSHEN         LGT RAIN  75  70  84 S10       30.08F
6HR MIN TEMP:  70; 6HR MAX TEMP:  82; 6HR PCP:  0.04;

LOGANSPORT +   LGT RAIN  70  68  94 S14G22    30.09F
ROCHESTER +    LGT RAIN  73  70  88 S8        30.09F
SOUTH BEND     LGT RAIN  72  69  90 S10       30.07F FOG
6HR MIN TEMP:  72; 6HR MAX TEMP:  79; 6HR PCP:  0.04;

WARSAW +       LGT RAIN  72  70  94 SW6       30.10F

$$

INZ006>009-017-018-025>027-121900-
NORTHEAST INDIANA

CITY           SKY/WX    TMP DP  RH WIND       PRES   REMARKS
ANGOLA *+      CLOUDY    79  70  73 SW6       30.11F
AUBURN +       LGT RAIN  79  64  61 SW14G20   30.13S
FORT WAYNE     CLOUDY    80  67  64 SW16      30.13F
6HR MIN TEMP:  70; 6HR MAX TEMP:  86; 6HR PCP: TRACE;

HUNTINGTON +   CLOUDY    75  68  78 SW12      30.12F
6HR MIN TEMP:  70; 6HR MAX TEMP:  82;


$$

INZ028-029-035-036-043>045-051>053-121900-
WEST CENTRAL INDIANA

CITY           SKY/WX    TMP DP  RH WIND       PRES   REMARKS
GREENCASTLE +  LGT RAIN  70  68  94 S8        30.16F
LAFAYETTE      LGT RAIN  70  69  97 S7        30.10F
6HR MIN TEMP:  69; 6HR MAX TEMP:  74; 6HR PCP:  0.33;

TERRE HAUTE    LGT RAIN  71  69  93 SE9       30.14F FOG
6HR MIN TEMP:  70; 6HR MAX TEMP:  73; 6HR PCP:  0.38;


$$

INZ030>032-037>040-046>048-054>057-064-065-121900-
CENTRAL INDIANA

CITY           SKY/WX    TMP DP  RH WIND       PRES   REMARKS
ANDERSON       PTSUNNY   77  66  69 SW12      30.18F
CP ATTERBURY + LGT RAIN  77  68  73 W6        30.19F
COLUMBUS       MOSUNNY   77  70  78 SW7       30.19R
FRANKFORT +    LGT RAIN N/A N/A N/A S3        30.14
INDIANAPOLIS   LGT RAIN  72  69  90 W6        30.17F FOG
6HR MIN TEMP:  69; 6HR MAX TEMP:  77; 6HR PCP:  0.07;

-EAGLE CREEK   LGT RAIN  71  68  90 SW6       30.17F FOG
6HR MIN TEMP:  70; 6HR MAX TEMP:  77; 6HR PCP:  0.07;

KOKOMO *+      CLOUDY    73  66  78 SW14G23   30.13F
MARION +       CLOUDY    74  68  81 SW10      30.14F
MT COMFORT *+  CLOUDY    75  72  88 W13       30.19F
SHELBYVILLE    LGT RAIN  78  69  73 W12       30.18F
6HR MIN TEMP:  70; 6HR MAX TEMP:  82; 6HR PCP: TRACE;

ZIONSVILLE +   LGT RAIN  72  67  84 SW7       30.16F
6HR MIN TEMP:  69; 6HR MAX TEMP:  78; 6HR PCP:  0.02;


$$

INZ033-034-041-042-049-050-058-059-121900-
EAST CENTRAL INDIANA

CITY           SKY/WX    TMP DP  RH WIND       PRES   REMARKS
MUNCIE         CLOUDY    80  67  64 W17       30.16F
6HR MIN TEMP:  72; 6HR MAX TEMP:  81;


$$

INZ060-061-067>069-081>083-085>088-121900-
SOUTHWEST INDIANA

CITY           SKY/WX    TMP DP  RH WIND       PRES   REMARKS
EVANSVILLE     LGT RAIN  73  71  93 SE5       30.18F FOG
6HR MIN TEMP:  73; 6HR MAX TEMP:  82; 6HR PCP:  0.17;

HUNTINGBURG *+ CLOUDY    81  68  65 W5        30.18S
6HR MIN TEMP:  72; 6HR MAX TEMP:  82;

WASHINGTON +   CLOUDY    73  72  96 SE3       30.16F FOG
6HR MIN TEMP:  72; 6HR MAX TEMP:  74; 6HR PCP:  0.18;


$$

INZ062-063-066-070>080-084-089>092-121900-
SOUTH CENTRAL AND SOUTHEAST INDIANA

CITY           SKY/WX    TMP DP  RH WIND       PRES   REMARKS
BLOOMINGTON    LGT RAIN  73  69  87 S3        30.20S FOG
6HR MIN TEMP:  70; 6HR MAX TEMP:  78; 6HR PCP:  0.03;

NORTH VERNON + CLOUDY    81  70  69 W6        30.20

$$




USA.gov is the U.S. government's official web portal to all federal, state and local government web resources and services.